DW7027 Weather Reports


time (UTC)temp
C
wind
direction
speed
KPH
gust
KPH
rain 1hr
cm
rain 24hr
cm
rain mn
cm
humidity
%
barometer
mb
20260503005704 5 320 3.2 4.8 0.00 0.00 0.00 72 1024.8
20260503005205 5 318 1.6 3.2 0.00 0.00 0.00 72 1024.9
20260503004705 5 292 1.6 3.2 0.00 0.00 0.00 71 1024.8
20260503004204 5 327 1.6 3.2 0.00 0.00 0.00 71 1024.8
20260503003705 5 259 1.6 3.2 0.00 0.00 0.00 71 1024.7
20260503003204 6 292 1.6 3.2 0.00 0.00 0.00 72 1024.8
20260503002704 6 270 1.6 8.0 0.00 0.00 0.00 72 1024.8
20260503002205 5 179 4.8 8.0 0.00 0.00 0.00 73 1024.7
20260503001705 6 209 0.0 1.6 0.00 0.00 0.00 72 1024.7
20260503000704 6 346 1.6 3.2 0.00 0.00 0.00 71 1024.5
20260502235704 6 297 1.6 3.2 0.00 0.00 0.00 71 1024.4
20260502235204 6 284 1.6 3.2 0.00 0.00 0.00 70 1024.7
20260502234704 6 331 1.6 3.2 0.00 0.00 0.00 69 1024.5
20260502234204 6 338 0.0 1.6 0.00 0.00 0.00 69 1024.7
20260502233704 6 330 1.6 4.8 0.00 0.00 0.00 70 1024.4
20260502233204 6 289 3.2 4.8 0.00 0.00 0.00 70 1024.8
20260502232704 6 334 1.6 3.2 0.00 0.00 0.00 68 1024.7
20260502232204 6 3 1.6 3.2 0.00 0.00 0.00 67 1024.6
20260502231204 6 350 1.6 3.2 0.00 0.00 0.00 66 1024.7
20260502230204 6 293 1.6 3.2 0.00 0.00 0.00 65 1024.7
20260502225705 7 283 1.6 3.2 0.00 0.00 0.00 65 1024.7
20260502225204 7 353 1.6 3.2 0.00 0.00 0.00 64 1024.5
20260502224705 7 357 1.6 3.2 0.00 0.00 0.00 64 1024.7
20260502224204 7 287 1.6 8.0 0.00 0.00 0.00 64 1024.7
20260502223704 7 256 3.2 4.8 0.00 0.00 0.00 64 1024.7
20260502222705 7 297 1.6 3.2 0.00 0.00 0.00 64 1024.8
20260502222204 7 262 1.6 3.2 0.00 0.00 0.00 64 1024.9
20260502221705 7 187 0.0 1.6 0.00 0.00 0.00 63 1024.9
20260502221204 7 326 0.0 1.6 0.00 0.00 0.00 62 1024.7
20260502220705 7 280 0.0 3.2 0.00 0.00 0.00 62 1024.7
20260502220204 7 242 1.6 3.2 0.00 0.00 0.00 62 1024.8
20260502215704 8 295 1.6 3.2 0.00 0.00 0.00 61 1024.8
20260502214705 8 261 1.6 3.2 0.00 0.00 0.00 60 1024.5
20260502214204 8 264 3.2 3.2 0.00 0.00 0.00 59 1024.6
20260502212704 8 287 1.6 3.2 0.00 0.00 0.00 58 1024.6
20260502212204 8 329 0.0 3.2 0.00 0.00 0.00 57 1024.7
20260502211704 8 282 1.6 4.8 0.00 0.00 0.00 57 1024.7
20260502211204 9 297 1.6 4.8 0.00 0.00 0.00 57 1024.5
20260502210704 9 286 1.6 3.2 0.00 0.00 0.00 57 1024.6
20260502210204 9 276 1.6 3.2 0.00 0.00 0.00 56 1024.8
20260502205704 10 254 1.6 3.2 0.00 0.00 0.00 56 1024.7
20260502205204 10 264 1.6 3.2 0.00 0.00 0.00 55 1024.7
20260502204704 10 333 1.6 3.2 0.00 0.00 0.00 54 1024.6
20260502204205 10 303 1.6 3.2 0.00 0.00 0.00 54 1024.6
20260502203704 10 288 1.6 3.2 0.00 0.00 0.00 53 1024.8
20260502203204 10 319 1.6 4.8 0.00 0.00 0.00 53 1024.6
20260502202705 11 342 1.6 3.2 0.00 0.00 0.00 52 1024.7
20260502202205 11 290 3.2 3.2 0.00 0.00 0.00 52 1024.8
20260502200204 11 271 1.6 3.2 0.00 0.00 0.00 49 1024.6
20260502195704 12 284 1.6 4.8 0.00 0.00 0.00 48 1024.7
20260502195205 12 337 3.2 4.8 0.00 0.00 0.00 47 1024.6
20260502194704 12 300 1.6 3.2 0.00 0.00 0.00 47 1024.6
20260502194205 12 274 1.6 3.2 0.00 0.00 0.00 46 1024.6
20260502193704 12 279 1.6 3.2 0.00 0.00 0.00 46 1024.6
20260502193205 13 295 1.6 3.2 0.00 0.00 0.00 45 1024.5
20260502192704 13 259 1.6 4.8 0.00 0.00 0.00 44 1024.6
20260502192205 13 272 1.6 4.8 0.00 0.00 0.00 44 1024.4
20260502191205 14 270 1.6 3.2 0.00 0.00 0.00 43 1024.4
20260502190704 15 291 1.6 3.2 0.00 0.00 0.00 42 1024.4
20260502190205 15 285 1.6 3.2 0.00 0.00 0.00 42 1024.2
20260502185704 15 281 1.6 3.2 0.00 0.00 0.00 42 1024.2
20260502185204 15 299 1.6 3.2 0.00 0.00 0.00 41 1024.4
20260502184705 16 311 1.6 3.2 0.00 0.00 0.00 40 1024.1
20260502183704 16 302 1.6 4.8 0.00 0.00 0.00 38 1024.1
20260502183205 17 284 3.2 4.8 0.00 0.00 0.00 37 1023.9
20260502182704 17 280 1.6 3.2 0.00 0.00 0.00 37 1024.0
20260502182204 18 281 3.2 3.2 0.00 0.00 0.00 36 1023.8
20260502181706 18 286 1.6 3.2 0.00 0.00 0.00 35 1023.6
20260502181205 18 325 1.6 3.2 0.00 0.00 0.00 34 1023.7
20260502170204 23 15 6.4 11.3 0.00 0.00 0.00 28 1023.3
20260502164204 24 23 4.8 11.3 0.00 0.00 0.00 28 1023.3
20260502163704 24 44 8.0 11.3 0.00 0.00 0.00 28 1023.5
20260502163204 24 339 4.8 8.0 0.00 0.00 0.00 28 1023.4
20260502162704 25 36 3.2 9.7 0.00 0.00 0.00 27 1023.5
20260502162204 25 333 3.2 11.3 0.00 0.00 0.00 27 1023.6
20260502161704 25 1 8.0 11.3 0.00 0.00 0.00 28 1023.5
20260502161204 25 43 8.0 11.3 0.00 0.00 0.00 28 1023.7
20260502160704 25 334 3.2 4.8 0.00 0.00 0.00 28 1023.8
20260502160205 25 32 3.2 11.3 0.00 0.00 0.00 28 1023.7
20260502152204 26 276 3.2 12.9 0.00 0.00 0.00 29 1024.0
20260502151204 26 19 8.0 12.9 0.00 0.00 0.00 28 1024.2
20260502150704 26 15 9.7 14.5 0.00 0.00 0.00 29 1024.3
20260502130705 25 325 4.8 12.9 0.00 0.00 0.00 32 1025.6
20260502130204 25 276 6.4 11.3 0.00 0.00 0.00 32 1025.4
20260502123704 25 191 4.8 9.7 0.00 0.00 0.00 32 1026.0
20260502123204 25 321 4.8 12.9 0.00 0.00 0.00 32 1026.1
20260502122704 25 45 4.8 11.3 0.00 0.00 0.00 31 1026.1
20260502122204 25 323 1.6 9.7 0.00 0.00 0.00 32 1026.3
20260502121704 25 264 3.2 8.0 0.00 0.00 0.00 31 1026.2
20260502121205 25 76 6.4 20.9 0.00 0.00 0.00 32 1026.3
20260502120204 25 4 9.7 22.5 0.00 0.00 0.00 31 1026.2
20260502115704 25 339 6.4 12.9 0.00 0.00 0.00 33 1026.5
20260502115204 25 92 4.8 19.3 0.00 0.00 0.00 32 1026.4
20260502114204 25 138 4.8 16.1 0.00 0.00 0.00 32 1026.7
20260502113704 25 111 3.2 19.3 0.00 0.00 0.00 32 1026.7
20260502113204 25 93 4.8 12.9 0.00 0.00 0.00 34 1026.9
20260502112204 24 0 9.7 16.1 0.00 0.00 0.00 34 1027.1
20260502111704 24 6 3.2 8.0 0.00 0.00 0.00 34 1027.1
20260502111205 24 136 1.6 9.7 0.00 0.00 0.00 33 1027.0
20260502110704 24 3 8.0 16.1 0.00 0.00 0.00 34 1027.2
20260502110204 24 329 4.8 12.9 0.00 0.00 0.00 33 1027.3
20260502105204 23 54 8.0 14.5 0.00 0.00 0.00 35 1027.5
20260502104705 23 311 1.6 11.3 0.00 0.00 0.00 36 1027.5
20260502104204 23 342 3.2 9.7 0.00 0.00 0.00 36 1027.6
20260502103706 23 6 6.4 11.3 0.00 0.00 0.00 34 1027.6
20260502103205 23 336 4.8 12.9 0.00 0.00 0.00 36 1027.7
20260502102704 23 306 8.0 12.9 0.00 0.00 0.00 35 1027.8
20260502101704 23 2 6.4 12.9 0.00 0.00 0.00 36 1027.8
20260502101204 23 349 4.8 19.3 0.00 0.00 0.00 34 1027.9
20260502100204 23 320 8.0 12.9 0.00 0.00 0.00 37 1028.1
20260502091204 21 137 8.0 12.9 0.00 0.00 0.00 38 1028.6
20260502090704 22 154 4.8 11.3 0.00 0.00 0.00 39 1028.9
20260502090204 21 312 3.2 8.0 0.00 0.00 0.00 43 1028.9
20260502071204 15 352 4.8 9.7 0.00 0.00 0.00 64 1030.2
20260502070204 14 322 4.8 8.0 0.00 0.00 0.00 68 1030.1
20260502065704 13 329 4.8 8.0 0.00 0.00 0.00 69 1030.4
20260502065204 13 14 3.2 8.0 0.00 0.00 0.00 70 1030.2
20260502064704 13 299 4.8 8.0 0.00 0.00 0.00 72 1030.3
20260502064204 12 0 1.6 4.8 0.00 0.00 0.00 74 1030.4
20260502063704 12 349 3.2 4.8 0.00 0.00 0.00 75 1030.4
20260502063204 12 290 3.2 8.0 0.00 0.00 0.00 76 1030.7
20260502062704 11 37 1.6 8.0 0.00 0.00 0.00 77 1030.7
20260502061204 10 3 3.2 8.0 0.00 0.00 0.00 81 1030.9
20260502060204 9 355 4.8 9.7 0.00 0.00 0.00 84 1030.9
20260502055704 9 327 4.8 9.7 0.00 0.00 0.00 86 1030.8
20260502055204 8 349 4.8 9.7 0.00 0.00 0.00 87 1030.7
20260502054704 8 348 4.8 9.7 0.00 0.00 0.00 87 1030.9
20260502054204 7 351 4.8 9.7 0.00 0.00 0.00 88 1030.8
20260502053705 7 335 3.2 11.3 0.00 0.00 0.00 89 1030.6
20260502053204 7 0 4.8 8.0 0.00 0.00 0.00 89 1030.8
20260502052704 6 2 3.2 8.0 0.00 0.00 0.00 88 1031.1
20260502051704 6 2 3.2 8.0 0.00 0.00 0.00 88 1031.0
20260502051204 5 7 3.2 8.0 0.00 0.00 0.00 88 1031.0
20260502050704 5 303 4.8 9.7 0.00 0.00 0.00 88 1031.1
20260502045704 4 334 1.6 3.2 0.00 0.00 0.00 88 1031.0
20260502045204 4 347 1.6 4.8 0.00 0.00 0.00 87 1030.9
20260502044204 3 359 1.6 4.8 0.00 0.00 0.00 87 1030.9
20260502043705 3 303 1.6 3.2 0.00 0.00 0.00 87 1031.1
20260502043204 3 301 1.6 3.2 0.00 0.00 0.00 86 1031.2
20260502041704 3 289 1.6 3.2 0.00 0.00 0.00 86 1031.1
20260502041204 3 298 1.6 3.2 0.00 0.00 0.00 86 1031.0
20260502040704 3 298 1.6 3.2 0.00 0.00 0.00 86 1031.0
20260502040204 3 316 1.6 3.2 0.00 0.00 0.00 85 1031.0
20260502035704 3 332 1.6 3.2 0.00 0.00 0.00 85 1031.1
20260502035204 3 304 0.0 3.2 0.00 0.00 0.00 85 1030.9
20260502034704 3 302 0.0 3.2 0.00 0.00 0.00 85 1030.8
20260502033704 3 331 1.6 3.2 0.00 0.00 0.00 85 1030.9
20260502033204 3 346 1.6 3.2 0.00 0.00 0.00 84 1031.0
20260502032704 3 322 0.0 3.2 0.00 0.00 0.00 84 1030.8
20260502032204 3 334 1.6 3.2 0.00 0.00 0.00 85 1030.9
20260502031704 4 331 1.6 3.2 0.00 0.00 0.00 85 1030.9
20260502030704 4 324 3.2 4.8 0.00 0.00 0.00 84 1030.6
20260502025704 4 324 3.2 8.0 0.00 0.00 0.00 84 1030.9
20260502025203 4 338 3.2 8.0 0.00 0.00 0.00 84 1030.9
20260502024704 4 330 3.2 4.8 0.00 0.00 0.00 84 1030.8
20260502023704 4 311 1.6 3.2 0.00 0.00 0.00 84 1030.8
20260502023204 4 303 1.6 4.8 0.00 0.00 0.00 84 1030.9
20260502022704 4 292 4.8 9.7 0.00 0.00 0.00 84 1030.8
20260502022204 4 296 4.8 8.0 0.00 0.00 0.00 83 1030.9
20260502021703 4 293 3.2 4.8 0.00 0.00 0.00 83 1030.7
20260502021204 4 275 3.2 3.2 0.00 0.00 0.00 83 1030.8
20260502020704 4 298 1.6 3.2 0.00 0.00 0.00 83 1030.6
20260502015704 5 321 1.6 3.2 0.00 0.00 0.00 82 1030.8
20260502015204 5 316 1.6 3.2 0.00 0.00 0.00 82 1030.7
20260502014704 5 287 1.6 3.2 0.00 0.00 0.00 82 1030.8
20260502014204 5 299 1.6 3.2 0.00 0.00 0.00 82 1030.8
20260502013204 5 356 1.6 3.2 0.00 0.00 0.00 82 1030.7
20260502012704 5 348 3.2 3.2 0.00 0.00 0.00 82 1030.8
20260502012204 5 345 3.2 3.2 0.00 0.00 0.00 81 1030.7
20260502011703 5 338 1.6 4.8 0.00 0.00 0.00 80 1030.9
20260502011204 5 345 3.2 3.2 0.00 0.00 0.00 80 1030.7
20260502010705 5 333 0.0 3.2 0.00 0.00 0.00 80 1030.7
20260502010204 5 324 1.6 3.2 0.00 0.00 0.00 80 1030.9